Time,TemperatureF,DewpointF,PressureIn,WindDirection,WindDirectionDegrees,WindSpeedMPH,WindSpeedGustMPH,Humidity,HourlyPrecipIn,Conditions,Clouds,dailyrainin,SoftwareType,DateUTC
2014-12-17 00:02:00,40.9,34.0,30.30,ESE,106,4.0,5.0,76,0.00,,,0.00,weatherlink.com 1.10,2014-12-17 06:02:00,
2014-12-17 00:17:00,40.8,34.0,30.30,ESE,114,4.0,5.0,76,0.00,,,0.00,weatherlink.com 1.10,2014-12-17 06:17:00,
2014-12-17 00:32:00,40.7,34.0,30.30,ESE,109,4.0,5.0,76,0.00,,,0.00,weatherlink.com 1.10,2014-12-17 06:32:00,
2014-12-17 00:47:00,40.3,34.0,30.30,ESE,112,4.0,5.0,77,0.00,,,0.00,weatherlink.com 1.10,2014-12-17 06:47:00,
2014-12-17 01:17:00,41.9,34.0,30.30,East,100,5.0,10.0,74,0.00,,,0.00,weatherlink.com 1.10,2014-12-17 07:17:00,
2014-12-17 01:32:00,42.1,34.0,30.29,East,96,8.0,11.0,73,0.00,,,0.00,weatherlink.com 1.10,2014-12-17 07:32:00,
2014-12-17 02:03:00,41.9,34.0,30.29,East,98,6.0,12.0,73,0.00,,,0.00,weatherlink.com 1.10,2014-12-17 08:03:00,
2014-12-17 02:18:00,41.2,34.0,30.29,ESE,121,5.0,7.0,75,0.00,,,0.00,weatherlink.com 1.10,2014-12-17 08:18:00,
2014-12-17 02:33:00,40.4,34.0,30.29,ESE,113,4.0,7.0,77,0.00,,,0.00,weatherlink.com 1.10,2014-12-17 08:33:00,
2014-12-17 02:48:00,39.9,34.0,30.29,ESE,105,4.0,6.0,79,0.00,,,0.00,weatherlink.com 1.10,2014-12-17 08:48:00,
2014-12-17 03:18:00,40.5,34.0,30.29,ESE,109,4.0,8.0,78,0.00,,,0.00,weatherlink.com 1.10,2014-12-17 09:18:00,
2014-12-17 03:33:00,40.2,34.0,30.27,ESE,105,7.0,8.0,79,0.00,,,0.00,weatherlink.com 1.10,2014-12-17 09:33:00,
2014-12-17 03:48:00,40.1,35.0,30.28,ESE,102,3.0,6.0,81,0.00,,,0.00,weatherlink.com 1.10,2014-12-17 09:48:00,
2014-12-17 04:03:00,40.5,34.0,30.28,East,98,7.0,8.0,79,0.00,,,0.00,weatherlink.com 1.10,2014-12-17 10:03:00,
2014-12-17 04:18:00,40.8,35.0,30.27,ESE,111,7.0,7.0,79,0.00,,,0.00,weatherlink.com 1.10,2014-12-17 10:18:00,
2014-12-17 04:33:00,40.9,35.0,30.27,ESE,104,4.0,7.0,80,0.00,,,0.00,weatherlink.com 1.10,2014-12-17 10:33:00,
2014-12-17 05:18:00,41.1,35.0,30.28,East,98,5.0,6.0,79,0.00,,,0.00,weatherlink.com 1.10,2014-12-17 11:18:00,
2014-12-17 05:33:00,41.3,35.0,30.27,East,84,4.0,6.0,79,0.00,,,0.00,weatherlink.com 1.10,2014-12-17 11:33:00,
2014-12-17 05:48:00,41.5,35.0,30.28,ESE,102,3.0,5.0,79,0.00,,,0.00,weatherlink.com 1.10,2014-12-17 11:48:00,
2014-12-17 06:03:00,41.7,35.0,30.28,ESE,103,6.0,7.0,78,0.00,,,0.00,weatherlink.com 1.10,2014-12-17 12:03:00,
2014-12-17 06:18:00,41.7,36.0,30.28,East,98,6.0,7.0,79,0.00,,,0.00,weatherlink.com 1.10,2014-12-17 12:18:00,
2014-12-17 06:33:00,41.8,36.0,30.27,ESE,121,3.0,8.0,79,0.00,,,0.00,weatherlink.com 1.10,2014-12-17 12:33:00,
2014-12-17 06:48:00,41.8,36.0,30.27,ESE,108,6.0,7.0,80,0.00,,,0.00,weatherlink.com 1.10,2014-12-17 12:48:00,
2014-12-17 07:03:00,41.8,36.0,30.28,ESE,108,7.0,10.0,80,0.00,,,0.00,weatherlink.com 1.10,2014-12-17 13:03:00,
2014-12-17 07:18:00,41.9,37.0,30.27,East,98,7.0,8.0,81,0.00,,,0.00,weatherlink.com 1.10,2014-12-17 13:18:00,
2014-12-17 07:33:00,42.1,36.0,30.27,ESE,117,8.0,10.0,80,0.00,,,0.00,weatherlink.com 1.10,2014-12-17 13:33:00,
2014-12-17 07:48:00,42.3,36.0,30.28,ESE,113,8.0,9.0,79,0.00,,,0.00,weatherlink.com 1.10,2014-12-17 13:48:00,
2014-12-17 08:03:00,42.3,36.0,30.28,ESE,114,5.0,8.0,79,0.00,,,0.00,weatherlink.com 1.10,2014-12-17 14:03:00,
2014-12-17 08:18:00,42.4,36.0,30.28,ESE,113,9.0,9.0,79,0.00,,,0.00,weatherlink.com 1.10,2014-12-17 14:18:00,
2014-12-17 08:33:00,42.5,36.0,30.28,East,87,6.0,9.0,79,0.00,,,0.00,weatherlink.com 1.10,2014-12-17 14:33:00,
2014-12-17 08:48:00,42.6,37.0,30.28,ESE,106,8.0,11.0,79,0.00,,,0.00,weatherlink.com 1.10,2014-12-17 14:48:00,
2014-12-17 09:03:00,42.5,36.0,30.28,East,86,9.0,10.0,79,0.00,,,0.00,weatherlink.com 1.10,2014-12-17 15:03:00,
2014-12-17 09:18:00,42.8,37.0,30.28,ESE,110,8.0,8.0,79,0.00,,,0.00,weatherlink.com 1.10,2014-12-17 15:18:00,
2014-12-17 09:33:00,42.8,37.0,30.27,ESE,110,4.0,10.0,79,0.00,,,0.00,weatherlink.com 1.10,2014-12-17 15:33:00,
2014-12-17 09:48:00,43.0,37.0,30.29,East,98,2.0,8.0,79,0.00,,,0.00,weatherlink.com 1.10,2014-12-17 15:48:00,
2014-12-17 10:03:00,43.2,37.0,30.29,ESE,108,3.0,8.0,78,0.00,,,0.00,weatherlink.com 1.10,2014-12-17 16:03:00,
2014-12-17 10:18:00,43.4,37.0,30.30,ESE,109,3.0,9.0,78,0.00,,,0.00,weatherlink.com 1.10,2014-12-17 16:18:00,
2014-12-17 10:33:00,43.6,37.0,30.30,ESE,105,3.0,8.0,78,0.00,,,0.00,weatherlink.com 1.10,2014-12-17 16:33:00,
2014-12-17 10:48:00,43.7,37.0,30.29,ESE,102,8.0,9.0,77,0.00,,,0.00,weatherlink.com 1.10,2014-12-17 16:48:00,
2014-12-17 11:04:00,43.7,37.0,30.28,ESE,109,4.0,10.0,78,0.00,,,0.00,weatherlink.com 1.10,2014-12-17 17:04:00,
2014-12-17 11:18:00,43.8,37.0,30.28,ESE,103,4.0,8.0,77,0.00,,,0.00,weatherlink.com 1.10,2014-12-17 17:18:00,
2014-12-17 11:33:00,44.1,37.0,30.28,SE,125,3.0,5.0,77,0.00,,,0.00,weatherlink.com 1.10,2014-12-17 17:33:00,
2014-12-17 11:48:00,44.1,37.0,30.26,East,101,5.0,9.0,77,0.00,,,0.00,weatherlink.com 1.10,2014-12-17 17:48:00,
2014-12-17 12:04:00,44.1,37.0,30.24,East,96,7.0,11.0,76,0.00,,,0.00,weatherlink.com 1.10,2014-12-17 18:04:00,
2014-12-17 12:18:00,44.4,38.0,30.22,ESE,113,7.0,13.0,77,0.00,,,0.00,weatherlink.com 1.10,2014-12-17 18:18:00,
2014-12-17 12:33:00,44.9,38.0,30.22,ESE,115,9.0,10.0,76,0.00,,,0.00,weatherlink.com 1.10,2014-12-17 18:33:00,
2014-12-17 12:49:00,45.3,37.0,30.20,East,98,8.0,10.0,74,0.00,,,0.00,weatherlink.com 1.10,2014-12-17 18:49:00,
2014-12-17 13:04:00,45.2,37.0,30.20,SE,132,7.0,11.0,74,0.00,,,0.00,weatherlink.com 1.10,2014-12-17 19:04:00,
2014-12-17 13:19:00,44.9,38.0,30.19,SE,125,7.0,10.0,76,0.00,,,0.00,weatherlink.com 1.10,2014-12-17 19:19:00,
2014-12-17 13:34:00,44.5,38.0,30.17,ESE,116,14.0,14.0,77,0.00,,,0.00,weatherlink.com 1.10,2014-12-17 19:34:00,
2014-12-17 13:49:00,44.6,38.0,30.15,ESE,108,9.0,15.0,78,0.00,,,0.00,weatherlink.com 1.10,2014-12-17 19:49:00,
2014-12-17 14:04:00,44.3,39.0,30.14,East,96,7.0,16.0,80,0.00,,,0.00,weatherlink.com 1.10,2014-12-17 20:04:00,
2014-12-17 14:19:00,44.4,39.0,30.14,East,96,9.0,15.0,81,0.00,,,0.00,weatherlink.com 1.10,2014-12-17 20:19:00,
2014-12-17 14:34:00,44.3,39.0,30.14,East,96,6.0,12.0,82,0.00,,,0.00,weatherlink.com 1.10,2014-12-17 20:34:00,
2014-12-17 14:49:00,44.4,39.0,30.12,ESE,102,7.0,11.0,82,0.00,,,0.00,weatherlink.com 1.10,2014-12-17 20:49:00,
2014-12-17 15:04:00,44.5,39.0,30.10,ESE,117,7.0,14.0,82,0.00,,,0.00,weatherlink.com 1.10,2014-12-17 21:04:00,